Location: Spruce Knob
(38.6995°N, 79.5330°W)
Time: 20:50:20
(UTC-04:00)

A-11 Canister half - Pass Details

Date: 06 February 2022
Orbit: 1513 x 1686 km, 47.2° (Epoch: 26 May)

Event Time Altitude Azimuth Distance (km) Brightness Sun altitude
Rises 11:28:28 0° 195° (SSW) 4,894 12.4 33.8°
Reaches altitude 10° 11:32:11 10° 185° (S) 3,890 12.3 34.0°
Maximum altitude 11:40:16 29° 129° (SE) 2,632 11.5 34.5°
Drops below altitude 10° 11:48:08 10° 74° (ENE) 3,792 11.1 34.9°
Sets 11:51:40 0° 64° (ENE) 4,754 11.5 35.0°
